This is the latest recevied weather packets stored in our database for station/object JF7BTK-10. If no packets are shown the sender has not sent any weather packets the latest 10 day(s).
| Time | Temp. | Humidity | Pressure | Rain* | Wind** | Luminosity | Snow |
|---|---|---|---|---|---|---|---|
| 1778014899 | 12.22° C | 62% | 1012.4 hPa | 0 mm | - | - | - |
| 1778013999 | 11.11° C | 62% | 1012.4 hPa | 0 mm | - | - | - |
| 1778013099 | 10° C | 62% | 1012.1 hPa | 0 mm | - | - | - |
| 1778012198 | 9.44° C | 65% | 1011.9 hPa | 0 mm | - | - | - |
| 1778011300 | 8.33° C | 66% | 1011.9 hPa | 0 mm | - | - | - |
| 1778010400 | 8.33° C | 66% | 1011.7 hPa | 0 mm | - | - | - |
| 1778009499 | 8.89° C | 64% | 1011.7 hPa | 0 mm | - | - | - |
| 1778008599 | 8.89° C | 66% | 1011.7 hPa | 0 mm | - | - | - |
| 1778007699 | 7.22° C | 74% | 1011.7 hPa | 0 mm | - | - | - |
| 1778006799 | 7.22° C | 74% | 1011.4 hPa | 0 mm | - | - | - |
| 1778005898 | 7.22° C | 74% | 1011.2 hPa | 0 mm | - | - | - |
| 1778005000 | 7.22° C | 72% | 1011.1 hPa | 0 mm | - | - | - |
| 1778004099 | 7.78° C | 66% | 1011.3 hPa | 0 mm | - | - | - |
| 1778003199 | 7.78° C | 62% | 1011.3 hPa | 0 mm | - | - | - |
| 1778002299 | 8.89° C | 61% | 1011.4 hPa | 0 mm | - | - | - |
| 1778001398 | 8.33° C | 67% | 1011.4 hPa | 0 mm | - | - | - |
| 1778000500 | 8.33° C | 67% | 1011.4 hPa | 0 mm | - | - | - |
| 1777999600 | 8.33° C | 66% | 1011.4 hPa | 0 mm | - | - | - |
| 1777998699 | 8.89° C | 62% | 1011.5 hPa | 0 mm | - | - | - |
| 1777997799 | 9.44° C | 61% | 1011.6 hPa | 0 mm | - | - | - |
| 1777996900 | 9.44° C | 64% | 1011.6 hPa | 0 mm | - | - | - |
| 1777995999 | 8.89° C | 68% | 1011.9 hPa | 0 mm | - | - | - |
| 1777995100 | 9.44° C | 62% | 1011.8 hPa | 0 mm | - | - | - |
| 1777994199 | 10.56° C | 60% | 1011.8 hPa | 0 mm | - | - | - |
| 1777993298 | 11.11° C | 52% | 1011.6 hPa | 0 mm | - | - | - |
* Rain latest hour (hover to see other rain measurements)
** Current wind speed in m/s (hover to see current wind gust speed)